When you browse on this site, cookies collect data to enhance your experience and personalize the content and advertising you see.
Visit our Privacy Policy to learn more. By continuing to use the site, you agree to this use of cookies and data.

Hourly Weather Gogino

Today, 4 July, Saturday

Time Temperature Precipitation Wind Pressure Humidity
00:00 +18°C° 1.5 mm 1 mps 737 mmHg 96%
01:00 +18°C° 1.5 mm 1 mps 737 mmHg 97%
02:00 +18°C° 0 mm 1 mps 737 mmHg 96%
03:00 +16°C° 0.6 mm 1 mps 737 mmHg 96%
04:00 +16°C° 0.6 mm 1 mps 737 mmHg 95%
05:00 +16°C° 0.6 mm 1 mps 737 mmHg 95%
06:00 +19°C° 0.1 mm 1 mps 737 mmHg 90%
07:00 +18°C° 0.1 mm 0 mps 737 mmHg 85%
08:00 +19°C° 0.1 mm 0 mps 738 mmHg 80%
09:00 +21°C° 0 mm 0 mps 738 mmHg 70%
10:00 +25°C° 0 mm 1 mps 737 mmHg 61%
11:00 +26°C° 0 mm 1 mps 737 mmHg 51%
12:00 +26°C° 0 mm 1 mps 737 mmHg 51%
13:00 +26°C° 0 mm 1 mps 737 mmHg 50%
14:00 +26°C° 0 mm 2 mps 737 mmHg 50%
15:00 +26°C° 0 mm 2 mps 737 mmHg 51%
16:00 +26°C° 0 mm 2 mps 737 mmHg 52%
17:00 +26°C° 0 mm 2 mps 737 mmHg 54%
18:00 +24°C° 0 mm 2 mps 737 mmHg 62%
19:00 +21°C° 0 mm 2 mps 737 mmHg 70%
20:00 +19°C° 0 mm 2 mps 737 mmHg 78%
21:00 +19°C° 0 mm 1 mps 737 mmHg 81%
22:00 +18°C° 0 mm 1 mps 737 mmHg 83%
23:00 +16°C° 0 mm 1 mps 737 mmHg 86%

Tomorrow, 5 July, Sunday

Time Temperature Precipitation Wind Pressure Humidity
00:00 +15°C° 0 mm 1 mps 737 mmHg 86%
01:00 +15°C° 0 mm 1 mps 737 mmHg 86%
02:00 +14°C° 0 mm 1 mps 737 mmHg 87%
03:00 +15°C° 0 mm 1 mps 737 mmHg 84%
04:00 +15°C° 0 mm 1 mps 737 mmHg 82%
05:00 +16°C° 0 mm 1 mps 737 mmHg 80%
06:00 +18°C° 0 mm 2 mps 737 mmHg 73%
07:00 +20°C° 0 mm 2 mps 737 mmHg 65%
08:00 +22°C° 0 mm 3 mps 737 mmHg 58%
09:00 +24°C° 0 mm 3 mps 737 mmHg 55%
10:00 +25°C° 0 mm 3 mps 737 mmHg 52%
11:00 +26°C° 0 mm 4 mps 737 mmHg 49%
12:00 +27°C° 0 mm 4 mps 736 mmHg 48%
13:00 +27°C° 0 mm 4 mps 736 mmHg 47%
14:00 +27°C° 0 mm 4 mps 736 mmHg 46%
15:00 +27°C° 0 mm 4 mps 735 mmHg 49%
16:00 +26°C° 0 mm 3 mps 735 mmHg 53%
17:00 +26°C° 0 mm 3 mps 735 mmHg 57%
18:00 +24°C° 0.1 mm 3 mps 735 mmHg 67%
19:00 +21°C° 0.1 mm 2 mps 735 mmHg 76%
20:00 +19°C° 0.1 mm 2 mps 734 mmHg 86%
21:00 +19°C° 0 mm 2 mps 734 mmHg 89%
22:00 +18°C° 0 mm 2 mps 734 mmHg 92%
23:00 +17°C° 0 mm 2 mps 734 mmHg 94%

Day after tomorrow, 6 July, Monday

Time Temperature Precipitation Wind Pressure Humidity
00:00 +17°C° 0 mm 2 mps 734 mmHg 95%
01:00 +17°C° 0 mm 2 mps 734 mmHg 96%
02:00 +17°C° 0 mm 3 mps 734 mmHg 97%
03:00 +17°C° 0 mm 3 mps 734 mmHg 96%
04:00 +18°C° 0 mm 3 mps 734 mmHg 95%
05:00 +18°C° 0 mm 3 mps 734 mmHg 94%
06:00 +20°C° 0 mm 4 mps 734 mmHg 86%
07:00 +21°C° 0 mm 4 mps 734 mmHg 78%
08:00 +23°C° 0 mm 4 mps 734 mmHg 70%
09:00 +25°C° 0.1 mm 4 mps 734 mmHg 68%
10:00 +26°C° 0.1 mm 4 mps 734 mmHg 66%
11:00 +27°C° 0.1 mm 4 mps 734 mmHg 63%
12:00 +26°C° 0.4 mm 4 mps 734 mmHg 70%
13:00 +25°C° 0.4 mm 4 mps 733 mmHg 77%
14:00 +24°C° 0.4 mm 3 mps 733 mmHg 84%
15:00 +24°C° 0.5 mm 3 mps 733 mmHg 86%
16:00 +22°C° 0.5 mm 3 mps 733 mmHg 88%
17:00 +23°C° 0.5 mm 2 mps 733 mmHg 89%
18:00 +23°C° 0.1 mm 2 mps 733 mmHg 91%
19:00 +21°C° 0.1 mm 2 mps 733 mmHg 93%
20:00 +20°C° 0.1 mm 2 mps 733 mmHg 95%
21:00 +20°C° 0 mm 2 mps 733 mmHg 96%
22:00 +19°C° 0 mm 2 mps 733 mmHg 96%
23:00 +19°C° 0 mm 2 mps 733 mmHg 97%

7 July, Tuesday

Time Temperature Precipitation Wind Pressure Humidity
00:00 +20°C° 0.1 mm 1 mps 733 mmHg 98%
01:00 +20°C° 0.1 mm 1 mps 733 mmHg 98%
02:00 +19°C° 0.1 mm 1 mps 733 mmHg 98%
03:00 +19°C° 0.3 mm 1 mps 733 mmHg 98%
04:00 +20°C° 0.3 mm 1 mps 733 mmHg 98%
05:00 +20°C° 0.3 mm 1 mps 733 mmHg 98%
06:00 +20°C° 0.7 mm 1 mps 733 mmHg 96%
07:00 +21°C° 0.7 mm 1 mps 733 mmHg 95%
08:00 +21°C° 0.7 mm 1 mps 733 mmHg 94%
09:00 +20°C° 2 mm 2 mps 733 mmHg 94%
10:00 +20°C° 2 mm 3 mps 733 mmHg 94%
11:00 +19°C° 2 mm 3 mps 733 mmHg 94%
12:00 +20°C° 0.2 mm 3 mps 733 mmHg 87%
13:00 +21°C° 0.2 mm 3 mps 733 mmHg 81%
14:00 +21°C° 0.2 mm 2 mps 733 mmHg 74%
15:00 +20°C° 0.1 mm 2 mps 734 mmHg 79%
16:00 +20°C° 0.1 mm 1 mps 734 mmHg 84%
17:00 +19°C° 0.1 mm 1 mps 734 mmHg 89%
18:00 +19°C° 0 mm 1 mps 734 mmHg 89%
19:00 +18°C° 0 mm 1 mps 734 mmHg 89%
20:00 +18°C° 0 mm 1 mps 734 mmHg 89%
21:00 +16°C° 0 mm 1 mps 734 mmHg 89%
22:00 +16°C° 0 mm 1 mps 734 mmHg 88%
23:00 +15°C° 0 mm 1 mps 734 mmHg 88%

8 July, Wednesday

Time Temperature Precipitation Wind Pressure Humidity
00:00 +15°C° 0 mm 1 mps 734 mmHg 86%
01:00 +15°C° 0 mm 1 mps 734 mmHg 85%
02:00 +15°C° 0 mm 2 mps 734 mmHg 84%
03:00 +15°C° 0 mm 2 mps 733 mmHg 83%
04:00 +16°C° 0 mm 2 mps 733 mmHg 82%
05:00 +16°C° 0 mm 3 mps 733 mmHg 81%
06:00 +14°C° 0.6 mm 3 mps 732 mmHg 86%
07:00 +14°C° 0.6 mm 3 mps 732 mmHg 90%
08:00 +13°C° 0.6 mm 4 mps 732 mmHg 95%
09:00 +13°C° 0.1 mm 4 mps 731 mmHg 95%
10:00 +13°C° 0.1 mm 4 mps 731 mmHg 94%
11:00 +13°C° 0.1 mm 4 mps 731 mmHg 94%
12:00 +13°C° 1 mm 4 mps 731 mmHg 95%
13:00 +13°C° 1 mm 4 mps 731 mmHg 96%
14:00 +13°C° 1 mm 4 mps 731 mmHg 97%
15:00 +13°C° 1.6 mm 4 mps 731 mmHg 97%
16:00 +12°C° 1.6 mm 4 mps 731 mmHg 97%
17:00 +12°C° 1.6 mm 3 mps 731 mmHg 97%
18:00 +12°C° 0.2 mm 3 mps 732 mmHg 97%
19:00 +13°C° 0.2 mm 2 mps 732 mmHg 97%
20:00 +13°C° 0.2 mm 2 mps 732 mmHg 97%
21:00 +13°C° 0 mm 2 mps 732 mmHg 97%
22:00 +12°C° 0 mm 2 mps 732 mmHg 97%
23:00 +12°C° 0 mm 2 mps 732 mmHg 97%

9 July, Thursday

Time Temperature Precipitation Wind Pressure Humidity
00:00 +12°C° 0 mm 2 mps 732 mmHg 97%
01:00 +12°C° 0 mm 2 mps 732 mmHg 97%
02:00 +12°C° 0 mm 2 mps 732 mmHg 97%
03:00 +12°C° 0 mm 2 mps 732 mmHg 97%
04:00 +12°C° 0 mm 2 mps 732 mmHg 96%
05:00 +12°C° 0 mm 2 mps 733 mmHg 96%
06:00 +12°C° 0 mm 3 mps 733 mmHg 90%
07:00 +14°C° 0 mm 3 mps 733 mmHg 84%
08:00 +16°C° 0 mm 3 mps 733 mmHg 77%
09:00 +17°C° 0.1 mm 3 mps 734 mmHg 71%
10:00 +19°C° 0.1 mm 4 mps 734 mmHg 64%
11:00 +20°C° 0.1 mm 4 mps 734 mmHg 58%
12:00 +20°C° 0.1 mm 4 mps 734 mmHg 54%
13:00 +21°C° 0.1 mm 4 mps 734 mmHg 50%
14:00 +22°C° 0.1 mm 4 mps 734 mmHg 46%
15:00 +21°C° 0 mm 4 mps 734 mmHg 47%
16:00 +21°C° 0 mm 4 mps 734 mmHg 48%
17:00 +21°C° 0 mm 4 mps 734 mmHg 49%
18:00 +19°C° 0 mm 3 mps 734 mmHg 58%
19:00 +17°C° 0 mm 3 mps 734 mmHg 68%
20:00 +15°C° 0 mm 2 mps 734 mmHg 77%
21:00 +14°C° 0 mm 2 mps 734 mmHg 82%
22:00 +12°C° 0 mm 2 mps 735 mmHg 87%
23:00 +10°C° 0 mm 2 mps 735 mmHg 92%
Show more